Austin, TX

12:11 AM CST on February 25, 2017 (GMT -0600)
Austin Bergstrom International

Weather History for KAUS - March, 2012

Change the Weather History Date:

Thursday, March 29, 2012

  Actual Average Record
Temperature  
Mean Temperature 72 °F 63 °F  
Max Temperature 81 °F 75 °F 95 °F (1971)
Min Temperature 63 °F 50 °F 30 °F (2009)
Degree Days  
Heating Degree Days 0 4  
Month to date heating degree days 98 215  
Since 1 July heating degree days 1471 1830  
Cooling Degree Days 7 2  
Month to date cooling degree days 80 37  
Year to date cooling degree days 114 53  
Growing Degree Days 22 (Base 50)    
Moisture  
Dew Point 66 °F    
Average Humidity 81    
Maximum Humidity 100    
Minimum Humidity 62    
Precipitation  
Precipitation T in 0.08 in 0.26 in (1980)
Month to date precipitation 5.11 2.64  
Year to date precipitation 16.27 7.15  
Snow  
Snow 0.00 in - - ()
Month to date snowfall 0.0  
Since 1 July snowfall T  
Snow Depth 0.00 in    
Sea Level Pressure  
Sea Level Pressure 29.87 in    
Wind  
Wind Speed 6 mph (South)    
Max Wind Speed 15 mph    
Max Gust Speed 18 mph    
Visibility 6 miles    
Events Rain    
T = Trace of Precipitation, MM = Missing Value Source: NWS Daily Summary

Daily Weather History Graph

Daily Weather History Graph

Search for Another Location

Airport or City:

Trip Planner

Search our weather history database for the weather conditions in past years. The results will help you decide how hot, cold, wet, or windy it might be!

Date:

Astronomy

Mar. 29, 2012 Rise Set
Actual Time 7:22 AM CDT 7:47 PM CDT
Civil Twilight 6:58 AM CDT 8:12 PM CDT
Nautical Twilight 6:30 AM CDT 8:40 PM CDT
Astronomical Twilight 6:02 AM CDT 9:08 PM CDT
Moon 11:54 AM CDT (3/29) 1:19 AM CDT (3/29)
Length of Visible Light 13h 13m
Length of Day
12h 25m
Waxing Crescent, 39% of the Moon is Illuminated
Mar 29
Waxing Crescent
Mar 30
First Quarter
Apr 6
Full
Apr 13
Last Quarter
Apr 21
New

Hourly Weather History & Observations

Time (CDT) Temp. Heat Index Dew Point Humidity Pressure Visibility Wind Dir Wind Speed Gust Speed Precip Events Conditions
12:53 AM 64.0 °F - 63.0 °F 96% 29.94 in 9.0 mi Calm Calm - 0.00 in   Mostly Cloudy
1:53 AM 64.9 °F - 64.0 °F 97% 29.92 in 7.0 mi Calm Calm - 0.00 in Rain Light Rain
2:26 AM 64.4 °F - 64.4 °F 100% 29.93 in 5.0 mi Calm Calm - 0.00 in   Overcast
2:53 AM 64.9 °F - 64.0 °F 97% 29.90 in 3.0 mi Calm Calm - 0.00 in   Overcast
2:57 AM 64.4 °F - 64.4 °F 100% 29.92 in 2.0 mi Calm Calm - N/A   Overcast
3:17 AM 66.2 °F - 64.4 °F 94% 29.91 in 1.0 mi Calm Calm - N/A   Overcast
3:42 AM 66.2 °F - 66.2 °F 100% 29.90 in 2.5 mi SE 4.6 mph - N/A   Overcast
3:53 AM 66.9 °F - 66.0 °F 97% 29.88 in 2.5 mi SSE 4.6 mph - N/A   Overcast
4:11 AM 66.2 °F - 66.2 °F 100% 29.90 in 1.0 mi South 3.5 mph - N/A   Overcast
4:50 AM 66.2 °F - 66.2 °F 100% 29.88 in 2.5 mi SSE 3.5 mph - N/A   Overcast
4:53 AM 66.9 °F - 66.0 °F 97% 29.87 in 2.5 mi South 4.6 mph - N/A   Overcast
5:09 AM 66.2 °F - 66.2 °F 100% 29.88 in 3.0 mi SSE 4.6 mph - N/A   Overcast
5:53 AM 66.0 °F - 64.9 °F 96% 29.85 in 1.0 mi SE 4.6 mph - N/A   Overcast
6:00 AM 66.2 °F - 66.2 °F 100% 29.87 in 0.5 mi SE 3.5 mph - N/A   Overcast
6:24 AM 66.2 °F - 64.4 °F 94% 29.90 in 1.0 mi SSE 3.5 mph - N/A   Overcast
6:53 AM 66.0 °F - 66.0 °F 100% 29.89 in 2.0 mi South 3.5 mph - N/A   Overcast
7:09 AM 66.2 °F - 66.2 °F 100% 29.91 in 3.0 mi South 3.5 mph - N/A   Overcast
7:22 AM 66.2 °F - 66.2 °F 100% 29.91 in 3.0 mi SE 3.5 mph - N/A   Overcast
7:53 AM 66.9 °F - 66.0 °F 97% 29.90 in 3.0 mi South 4.6 mph - N/A   Overcast
8:53 AM 66.9 °F - 66.0 °F 97% 29.91 in 3.0 mi Calm Calm - N/A   Overcast
9:53 AM 68.0 °F - 66.0 °F 93% 29.92 in 3.0 mi SSE 4.6 mph - N/A   Overcast
10:41 AM 71.6 °F - 68.0 °F 88% 29.92 in 3.0 mi South 8.1 mph - N/A   Overcast
10:53 AM 71.1 °F - 66.9 °F 87% 29.91 in 5.0 mi South 6.9 mph - N/A   Overcast
11:34 AM 71.6 °F - 66.2 °F 83% 29.91 in 8.0 mi SW 5.8 mph - N/A   Overcast
11:53 AM 73.0 °F - 66.9 °F 81% 29.89 in 9.0 mi SSW 5.8 mph - N/A   Overcast
12:53 PM 75.0 °F - 64.9 °F 71% 29.88 in 10.0 mi SSW 5.8 mph - N/A   Overcast
1:53 PM 77.0 °F - 64.0 °F 64% 29.86 in 10.0 mi SW 5.8 mph - N/A   Overcast
2:53 PM 78.1 °F - 64.9 °F 64% 29.83 in 10.0 mi SW 4.6 mph - N/A   Overcast
3:53 PM 79.0 °F - 66.0 °F 64% 29.81 in 10.0 mi SSE 8.1 mph - N/A   Overcast
4:53 PM 80.1 °F 82.3 °F 66.9 °F 64% 29.80 in 10.0 mi South 8.1 mph - N/A   Mostly Cloudy
5:53 PM 78.1 °F - 66.0 °F 66% 29.78 in 10.0 mi SSE 4.6 mph - N/A   Mostly Cloudy
6:53 PM 78.1 °F - 66.9 °F 68% 29.77 in 10.0 mi SSE 5.8 mph - N/A   Mostly Cloudy
7:53 PM 75.0 °F - 66.0 °F 73% 29.79 in 10.0 mi SSE 5.8 mph - N/A   Mostly Cloudy
8:53 PM 73.0 °F - 68.0 °F 84% 29.82 in 10.0 mi SSE 9.2 mph - N/A   Mostly Cloudy
9:53 PM 72.0 °F - 68.0 °F 87% 29.82 in 10.0 mi SSE 6.9 mph - N/A   Partly Cloudy
10:53 PM 71.1 °F - 68.0 °F 90% 29.83 in 10.0 mi South 8.1 mph - N/A   Mostly Cloudy
11:03 PM 71.6 °F - 68.0 °F 88% 29.85 in 9.0 mi South 6.9 mph - N/A   Mostly Cloudy
11:38 PM 69.8 °F - 68.0 °F 94% 29.85 in 7.0 mi South 11.5 mph - N/A   Mostly Cloudy
11:53 PM 70.0 °F - 68.0 °F 93% 29.84 in 7.0 mi South 11.5 mph - N/A   Mostly Cloudy